Home   Weather   Punta Arenas   Past weeks

Flag for Chile Past Weather in Punta Arenas, Chile — Yesterday and Last 2 Weeks

Now
50 °F

Broken clouds.


Feels Like: 46 °F
Forecast: N/A
Wind: 10 mph from East

Location: Punta Arenas Airport

Current Time: Sep 25, 2016 at 6:05:11 PM

Latest Report: Sep 25, 2016 at 5:00 PM


Visibility: N/A

Pressure: 29.68 "Hg

Humidity: 67%

Dew Point: 39 °F

Location of Punta ArenasLocation

Past Weather in Punta Arenas — Graph

°F

Punta Arenas Temperature Yesterday

Maximum temperature yesterday: 55 °F (at 3:00 PM)
Minimum temperature yesterday: 32 °F (at 8:00 AM)
Average temperature yesterday: 45 °F

High & Low Weather Summary for the Past Weeks

 TemperatureHumidityPressure
High55 °F (Sep 14, 2:00 PM)100% (Sep 11, 3:00 AM)30.18 "Hg (Sep 11, 3:00 AM)
Low28 °F (Sep 11, 6:00 AM)26% (Sep 24, 6:00 PM)29.30 "Hg (Sep 20, 4:00 AM)
Average43 °F69%29.84 "Hg
* Reported Sep 10 5:00 PM — Sep 25 5:00 PM, Punta Arenas, Weather by CustomWeather, © 2016

Note: Actual official high and low records may vary slightly from our data, if they occured in-between our weather recording intervals... More about our weather records

Advertising

Punta Arenas Weather History for the Previous 24 Hours

Scroll right to see more
 ConditionsComfort  
Time TempWeatherWind HumidityBarometerVisibility
5:00 PM
Sun, Sep 25
50 °FBroken clouds.10 mph67%29.68 "HgN/A
4:00 PM50 °FBroken clouds.12 mph67%29.68 "HgN/A
3:00 PM50 °FBroken clouds.9 mph67%29.71 "HgN/A
2:00 PM50 °FBroken clouds.14 mph58%29.77 "HgN/A
1:00 PM48 °FBroken clouds.10 mph62%29.80 "HgN/A
12:00 PM46 °FPartly sunny.12 mph71%29.83 "HgN/A
11:00 AM45 °FScattered clouds.13 mph71%29.83 "HgN/A
10:00 AM43 °FBroken clouds.9 mph61%29.86 "HgN/A
9:00 AM43 °FBroken clouds.7 mph61%29.89 "HgN/A
8:00 AM41 °FSunny.8 mph61%29.92 "Hg10 mi
7:00 AM41 °FClear.3 mph61%29.95 "Hg10 mi
6:00 AM39 °FClear.8 mph65%29.95 "Hg10 mi
5:00 AM39 °FClear.7 mph65%29.98 "Hg10 mi
4:00 AM39 °FClear.8 mph70%30.01 "Hg10 mi
3:00 AM39 °FClear.8 mph65%30.01 "Hg10 mi
2:00 AM41 °FClear.17 mph61%30.04 "Hg10 mi
1:00 AM41 °FClear.9 mph76%30.07 "Hg10 mi
12:00 AM43 °FClear.8 mph76%30.07 "Hg10 mi
10:00 PM
Sat, Sep 24
39 °FClear.3 mph65%30.12 "Hg10 mi
9:00 PM41 °FClear.3 mph66%30.12 "Hg10 mi
8:00 PM48 °FClear.3 mph40%30.12 "Hg10 mi
7:00 PM54 °FSunny.9 mph30%30.12 "Hg10 mi
6:00 PM55 °FSunny.9 mph26%30.12 "Hg10 mi
Weather by CustomWeather, © 2016

See weather overviewHow to use our weather pages